Regional Weather Roundup
Issued by NWS

Home | Current Version | Previous Version | Graphics & Text | Print | Product List | Glossary Off
Versions: 1 2 3 4 5 6 7 8 9 10 11 12 13 14 15 16 17 18 19 20 21 22 23 24 25 26 27 28 29 30 31 32 33 34 35 36 37 38 39 40 41 42 43 44 45 46 47 48 49 50

000
ASUS43 KLSX 250407
RWRMO

WEATHER SUMMARY FOR MISSOURI
NATIONAL WEATHER SERVICE SPRINGFIELD MO
1100 PM CDT SUN JUL 24 2016

NOTE: "FAIR" INDICATES FEW OR NO CLOUDS BELOW 12,000 FEET WITH NO
       SIGNIFICANT WEATHER AND/OR OBSTRUCTIONS TO VISIBILITY.
       CURRENT SKY AND/OR WEATHER CONDITIONS ARE NOT AVAILABLE FOR
       CHILLICOTHE AND FARMINGTON.

MOZ001>031-035>038-043-044-053-054-250500-
...NORTHERN AND WESTERN MISSOURI...

CITY           SKY/WX    TMP DP  RH WIND       PRES   REMARKS
KANSAS CTY INT CLOUDY    81  69  67 E8        30.02R
KANSAS C DTWN  CLOUDY    83  70  64 NE7       29.99R
LEE`S SUMMIT   CLOUDY    82  73  74 E10       30.00F
ST JOSEPH      CLOUDY    75  67  76 VRB3      30.00R
CHILLICOTHE      N/A     79  71  76 CALM      29.99R
KIRKSVILLE     CLOUDY    76  72  87 N5        29.97F

$$
MOZ066>068-077>081-088>096-101>105-250500-
...SOUTHWEST MISSOURI...

CITY           SKY/WX    TMP DP  RH WIND       PRES   REMARKS
SPRINGFIELD    CLEAR     85  75  72 S6        29.99R HX  93
JOPLIN         CLEAR     84  74  71 SE6       29.97R HX  91
BRANSON        CLEAR     81  72  74 CALM      30.01S

$$
MOZ032>034-039>042-045>050-055>058-069>072-250500-
...CENTRAL MISSOURI...

CITY           SKY/WX    TMP DP  RH WIND       PRES   REMARKS
COLUMBIA       CLOUDY    83  79  88 NW6       29.95S HX  94
JEFFERSON CITY CLOUDY    80  72  76 E6        29.92S THUNDER
ROLLA          CLEAR     81  74  79 SW8       29.96F
SEDALIA        TSTM      74  68  81 W22G38    30.03R
WHITEMAN AFB   TSTM      69  69  99 NE8       30.04R FOG
OSAGE BEACH    PTCLDY    83  80  91 CALM      29.96S HX  95

$$
MOZ051-052-059>065-250500-
...EAST CENTRAL MISSOURI...

CITY           SKY/WX    TMP DP  RH WIND       PRES   REMARKS
ST LOUIS INTL  CLOUDY    89  78  70 S12       29.92R HX 103
SPIRIT OF STL  CLEAR     86  80  82 SW6       29.91R HX 101
ST CHARLES     CLOUDY    84  74  71 NW17G24   29.91R THUNDER HX  91

$$
MOZ072>076-082>087-097>100-106>115-250500-
...SOUTH CENTRAL AND SOUTHEAST MISSOURI...

CITY           SKY/WX    TMP DP  RH WIND       PRES   REMARKS
CAPE GIRARDEAU CLEAR     80  76  87 S5        29.94F
FARMINGTON     CLEAR     80  78  94 S5        29.97F
POPLAR BLUFF   CLEAR     82  77  84 CALM      29.95F HX  90
WEST PLAINS    CLEAR     81  73  76 CALM      30.02F

$$


USA.gov is the U.S. government's official web portal to all federal, state and local government web resources and services.